Stations météo

réclame
Mon MeteoGroup
Roth, Allemagne (10765): Température de l'air & dewpoint: 04.12.2018 23:00:00 - 10.12.2018 23:00:00 (CET)Roth, Allemagne (10765): Température de l'air 5cm & Température de l'air -5cm: 04.12.2018 23:00:00 - 10.12.2018 23:00:00 (CET)Roth, Allemagne (10765): Température de l'air -20cm & Température de l'air -100cm: 04.12.2018 23:00:00 - 10.12.2018 23:00:00 (CET)Roth, Allemagne (10765): Vitesse du vent & gusts: 04.12.2018 23:00:00 - 10.12.2018 23:00:00 (CET)Roth, Allemagne (10765): Direction du vent: 04.12.2018 23:00:00 - 10.12.2018 23:00:00 (CET)Roth, Allemagne (10765): reduced air pressure: 04.12.2018 23:00:00 - 10.12.2018 23:00:00 (CET)Roth, Allemagne (10765): visibility: 04.12.2018 23:00:00 - 10.12.2018 23:00:00 (CET)Roth, Allemagne (10765): Quantités de précipitations: 04.12.2018 23:00:00 - 10.12.2018 23:00:00 (CET)
Date & Time tt [°C] td [°C] tt 5cm [°C] tt -5cm [°C] tt -20cm [°C] tt -100cm [°C] ff [km/h] ff [knt] fx [km/h] fx [knt] dd ppp [hPa] vv [km] rr [mm]
10.12.2018 23:00:00 1,4 -0,8 0,3 2,0 4,3 7,8 18 10 31 17 W 1021,5 28 0,0
10.12.2018 22:00:00 1,8 -0,5 0,5 2,6 4,5 7,8 18 10 34 18 W 1021,2 27 0,0
10.12.2018 21:00:00 2,0 0,0 0,9 2,9 4,6 7,8 18 10 37 20 WNW 1020,9 31 0,1
10.12.2018 20:00:00 2,4 1,0 1,8 3,1 4,7 7,8 19 10 49 26 WNW 1020,5 20 0,0
10.12.2018 19:00:00 1,9 0,9 1,2 3,3 4,8 7,8 21 12 52 28 W 1020,2 19 0,9
10.12.2018 18:00:00 2,8 0,9 2,0 3,5 4,9 7,8 23 13 36 19 W 1020,2 9 0,0
10.12.2018 17:00:00 3,1 0,7 2,0 3,9 5,0 7,8 20 11 36 19 W 1020,2 37 0,0
10.12.2018 16:00:00 2,8 1,0 2,2 4,2 5,1 7,8 16 8 30 16 W 1020,5 31 0,0
10.12.2018 15:00:00 3,3 0,4 2,6 4,4 5,0 7,8 17 9 32 17 WNW 1020,5 51 0,0
10.12.2018 14:00:00 2,0 1,1 1,9 4,7 4,9 7,8 15 8 48 26 WNW 1020,8 22 0,9
10.12.2018 13:00:00 4,8 -0,3 6,5 5,3 4,7 7,8 34 18 49 27 WNW 1020,2 33 0,0
10.12.2018 12:00:00 4,1 0,6 4,0 4,8 4,5 7,8 29 16 46 25 WNW 1020,2 21 0,0
10.12.2018 11:00:00 4,2 -0,1 4,8 4,1 4,4 7,8 30 16 44 24 WNW 1020,4 27 0,0
10.12.2018 10:00:00 3,5 0,1 3,1 3,0 4,5 7,8 24 13 41 22 WNW 1020,2 31 0,0
10.12.2018 09:00:00 2,9 0,1 1,5 2,5 4,6 7,8 24 13 37 20 W 1019,9 38 0,0
10.12.2018 08:00:00 3,0 -0,1 1,3 2,8 4,8 7,8 21 11 37 20 W 1018,9 43 0,0
10.12.2018 07:00:00 2,9 0,7 1,2 3,1 4,9 7,8 18 10 29 16 W 1018,3 44 0,1
10.12.2018 06:00:00 3,4 1,9 2,8 3,6 5,0 7,8 12 6 23 12 WNW 1017,7 9 0,0
10.12.2018 05:00:00 2,8 1,8 2,1 3,6 5,1 7,8 14 8 35 19 W 1017,3 31 0,4
10.12.2018 04:00:00 3,7 1,1 3,0 3,6 5,2 7,8 26 14 42 23 WNW 1016,6 8 0,0
10.12.2018 03:00:00 3,8 1,0 2,2 3,5 5,4 7,8 21 11 37 20 W 1016,0 44 0,0
10.12.2018 02:00:00 4,3 0,6 2,5 4,1 5,6 7,8 27 15 50 27 WNW 1014,7 42 0,0
10.12.2018 01:00:00 5,2 2,6 4,0 4,6 5,6 7,8 27 15 44 24 WNW 1013,5 48 0,0
10.12.2018 00:00:00 5,5 3,1 4,5 4,8 5,7 7,8 22 12 41 22 W 1012,5 36 0,0
09.12.2018 23:00:00 5,4 3,4 4,5 4,8 5,8 7,8 25 14 43 23 W 1011,2 42 0,0
09.12.2018 22:00:00 5,2 2,8 4,0 4,7 5,9 7,8 23 13 46 25 W 1010,4 52 0,0
09.12.2018 21:00:00 5,3 2,8 3,7 5,1 6,0 7,8 19 11 37 20 W 1009,5 70 0,0
09.12.2018 20:00:00 5,6 4,2 5,0 5,5 6,0 7,8 16 9 36 20 WNW 1008,3 64 0,1
09.12.2018 19:00:00 5,6 4,2 4,8 5,6 6,1 7,8 24 13 43 23 W 1006,8 65 0,3
09.12.2018 18:00:00 5,9 4,6 5,3 5,7 6,1 7,8 22 12 40 22 W 1005,4 13 0,9
09.12.2018 17:00:00 6,5 3,9 5,6 5,8 6,1 7,8 24 13 47 26 W 1004,5 51 0,1
09.12.2018 16:00:00 6,1 4,5 5,4 6,0 6,1 7,8 24 13 40 22 W 1004,1 4,0 0,2
09.12.2018 15:00:00 6,2 4,5 5,6 6,0 6,0 7,8 23 12 45 24 WSW 1003,6 26 0,4
09.12.2018 14:00:00 5,8 4,3 5,4 6,0 6,0 7,8 13 7 45 24 WSW 1003,8 34 0,0
09.12.2018 13:00:00 6,6 3,3 6,0 6,1 5,9 7,8 31 17 54 29 W 1003,8 54 0,0
09.12.2018 12:00:00 6,8 3,7 6,1 5,9 5,8 7,8 17 9 50 27 W 1003,7 45 0,0
09.12.2018 11:00:00 6,7 3,3 5,9 5,6 5,7 7,8 27 15 45 24 W 1003,8 43 0,0
09.12.2018 10:00:00 6,4 3,5 5,4 5,2 5,8 7,8 29 15 51 28 W 1003,2 53 0,0
09.12.2018 09:00:00 6,0 4,4 5,1 5,2 5,8 7,8 24 13 37 20 W 1002,4 30 0,2
09.12.2018 08:00:00 5,7 4,5 4,7 5,2 5,9 7,8 20 11 70 38 W 1001,7 33 0,9
09.12.2018 07:00:00 6,8 3,6 4,8 5,5 5,9 7,8 26 14 52 28 W 1000,7 42 0,1
09.12.2018 06:00:00 7,2 4,4 5,9 5,7 5,8 7,8 32 17 53 28 W 999,9 63 0,3
09.12.2018 05:00:00 7,3 5,7 6,4 5,7 5,8 7,8 23 12 41 22 WSW 999,7 13 0,3
09.12.2018 04:00:00 7,8 5,0 6,5 5,6 5,8 7,8 27 14 52 28 WSW 1000,0 63 0,0
09.12.2018 03:00:00 6,9 5,7 6,1 5,4 5,7 7,8 30 16 51 28 WSW 1001,0 70 0,5
09.12.2018 02:00:00 6,3 4,8 5,5 5,3 5,7 7,8 28 15 47 26 SW 1001,4 12 1,1
09.12.2018 01:00:00 6,6 3,8 5,6 5,2 5,7 7,8 28 15 54 29 SW 1002,8 30 0,0
09.12.2018 00:00:00 6,3 3,8 5,2 5,2 5,7 7,8 29 16 53 29 SW 1004,7 66 0,1
08.12.2018 23:00:00 6,1 3,8 5,1 5,1 5,7 7,8 23 12 38 21 SW 1006,2 44 0,5
08.12.2018 22:00:00 5,6 4,1 4,8 5,1 5,8 7,8 26 14 40 21 SW 1008,0 5 0,6
08.12.2018 21:00:00 6,6 3,0 6,0 5,2 5,8 7,8 19 11 51 28 SW 1008,7 70 0,0
08.12.2018 20:00:00 6,6 3,3 5,7 5,2 5,8 7,8 31 17 58 32 WSW 1009,7 50 0,1
08.12.2018 19:00:00 6,5 3,2 5,4 5,2 5,8 7,8 32 17 49 26 WSW 1010,4 30 0,0
08.12.2018 18:00:00 6,1 3,5 5,3 5,3 5,8 7,8 25 13 47 26 WSW 1010,6 55 0,1
08.12.2018 17:00:00 5,9 3,5 5,0 5,3 5,9 7,8 23 12 51 28 WSW 1010,9 22 0,0
08.12.2018 16:00:00 5,7 3,6 5,0 5,5 5,8 7,8 24 13 42 23 WSW 1011,1 28 0,2
08.12.2018 15:00:00 5,4 3,4 4,8 5,6 5,8 7,7 27 15 58 31 WSW 1011,3 13 0,5
08.12.2018 14:00:00 6,9 1,8 6,4 5,7 5,7 7,7 30 16 56 30 WSW 1010,9 28 0,0
08.12.2018 13:00:00 6,4 1,9 5,4 5,5 5,6 7,7 32 18 51 27 WSW 1011,2 22 0,1
08.12.2018 12:00:00 6,0 1,3 5,7 5,2 5,5 7,7 20 11 48 26 SW 1011,9 52 0,0
08.12.2018 11:00:00 6,4 0,5 6,3 5,1 5,4 7,7 27 14 48 26 SW 1012,3 59 0,0
08.12.2018 10:00:00 5,6 0,5 5,1 4,3 5,4 7,7 23 12 46 25 WSW 1013,0 51 0,0
08.12.2018 09:00:00 5,0 1,1 4,5 3,9 5,5 7,7 22 12 39 21 WSW 1013,7 57 0,0
08.12.2018 08:00:00 4,6 0,9 3,7 3,6 5,7 7,7 27 15 46 25 WSW 1013,5 55 0,0
08.12.2018 07:00:00 4,6 1,2 3,6 3,8 5,9 7,7 19 10 32 18 WSW 1013,4 54 0,0
08.12.2018 06:00:00 4,6 1,1 2,8 3,9 6,2 7,6 25 14 39 21 WSW 1013,1 46 0,0
08.12.2018 05:00:00 4,5 1,8 2,7 4,4 6,4 7,6 19 10 45 24 WSW 1012,8 42 0,3
08.12.2018 04:00:00 5,0 2,3 4,0 4,9 6,6 7,6 25 13 46 25 W 1012,1 4,2 0,0
08.12.2018 03:00:00 5,5 2,1 4,7 5,4 6,8 7,6 24 13 43 23 W 1011,6 54 0,0
08.12.2018 02:00:00 6,5 1,9 5,2 6,0 7,0 7,6 29 15 58 32 W 1010,2 55 0,0
08.12.2018 01:00:00 7,2 2,3 5,4 6,1 7,2 7,6 34 19 62 33 W 1008,8 66 0,0
08.12.2018 00:00:00 7,8 4,4 6,1 6,9 7,3 7,6 26 14 51 28 W 1008,3 61 0,0
07.12.2018 23:00:00 8,4 5,6 7,1 7,3 7,3 7,6 35 19 63 34 WSW 1006,8 36 0,5
07.12.2018 22:00:00 8,4 6,7 7,5 7,3 7,4 7,6 12 6 23 12 SSW 1006,1 23 0,4
07.12.2018 21:00:00 9,4 5,7 7,7 7,4 7,5 7,6 16 8 29 16 SW 1006,1 12 0,1
07.12.2018 20:00:00 9,4 6,2 8,2 7,4 7,6 7,6 15 8 24 13 SW 1006,6 51 0,0
07.12.2018 19:00:00 9,0 7,5 8,0 7,8 7,6 7,6 9 5 18 10 SSW 1007,5 28 0,0
07.12.2018 18:00:00 8,2 7,6 7,5 8,0 7,7 7,5 3 2 11 6 SSW 1008,2 58 0,0
07.12.2018 17:00:00 9,5 7,6 8,3 8,5 7,7 7,5 8 5 19 10 SW 1008,4 55 0,4
07.12.2018 16:00:00 10,6 8,0 9,5 8,9 7,6 7,5 6 3 16 9 S 1009,8 52 0,1
07.12.2018 15:00:00 11,3 7,9 10,8 9,2 7,4 7,5 8 5 15 8 WSW 1010,5 55 0,0
07.12.2018 14:00:00 11,2 8,3 11,1 9,1 7,2 7,5 10 5 15 8 SW 1011,5 37 0,0
07.12.2018 13:00:00 10,7 8,0 10,4 8,6 7,0 7,5 12 6 22 12 SW 1012,9 29 0,0
07.12.2018 12:00:00 10,5 8,1 10,0 8,2 6,9 7,5 12 7 22 12 SW 1013,9 26 0,0
07.12.2018 11:00:00 10,1 8,1 9,7 7,9 6,7 7,5 14 8 23 12 SW 1015,1 21 0,0
07.12.2018 10:00:00 10,1 8,2 9,6 7,6 6,6 7,5 11 6 22 12 SW 1015,8 22 0,0
07.12.2018 09:00:00 10,0 8,0 9,2 7,3 6,5 7,5 10 6 21 11 SW 1016,7 22 0,0
07.12.2018 08:00:00 9,7 7,9 8,9 7,2 6,5 7,5 10 6 23 12 SW 1016,9 20 0,0
07.12.2018 07:00:00 9,7 8,1 8,9 7,1 6,4 7,5 10 6 23 12 SW 1017,3 19 0,0
07.12.2018 06:00:00 9,5 8,1 8,8 7,0 6,3 7,5 9 5 19 10 SW 1017,7 17 0,0
07.12.2018 05:00:00 9,4 8,0 8,6 7,0 6,2 7,5 10 5 16 9 SW 1018,2 25 0,0
07.12.2018 04:00:00 9,5 8,1 8,7 6,9 6,1 7,5 11 6 21 11 WSW 1019,0 34 0,0
07.12.2018 03:00:00 9,4 7,9 8,5 6,7 6,1 7,6 12 7 19 11 SW 1019,4 24 0,0
07.12.2018 02:00:00 9,1 7,8 8,2 6,6 6,0 7,6 9 5 16 9 SW 1019,8 20 0,0
07.12.2018 01:00:00 8,8 7,8 8,0 6,5 5,9 7,6 8 4 17 9 SW 1020,4 15 0,0
07.12.2018 00:00:00 8,6 7,9 7,8 6,4 5,8 7,6 7 4 13 7 SW 1020,9 9 0,0
06.12.2018 23:00:00 8,4 7,7 7,6 6,3 5,8 7,6 7 4 16 9 SW 1021,2 7 0,0
06.12.2018 22:00:00 8,4 7,5 7,6 6,2 5,7 7,6 10 6 15 8 SW 1021,4 10 0,0
06.12.2018 21:00:00 8,5 7,5 7,7 6,2 5,6 7,6 9 5 14 8 SW 1021,9 10 0,0
06.12.2018 20:00:00 8,6 8,0 7,9 6,2 5,6 7,6 8 4 12 6 SSW 1021,7 9 0,0
06.12.2018 19:00:00 8,7 8,0 7,9 6,2 5,5 7,6 9 5 12 7 SW 1021,8 11 0,0
06.12.2018 18:00:00 8,6 8,1 7,9 6,1 5,3 7,6 8 4 16 9 WSW 1021,7 12 0,0
06.12.2018 17:00:00 8,7 8,2 8,0 6,2 5,2 7,6 9 5 20 11 SW 1021,3 12 0,0
06.12.2018 16:00:00 8,6 8,0 8,1 6,3 4,9 7,6 12 6 19 10 WSW 1021,0 14 0,0
06.12.2018 15:00:00 8,2 7,7 8,0 6,1 4,7 7,7 11 6 19 10 SW 1020,5 5 0,0
06.12.2018 14:00:00 7,7 7,4 7,4 5,6 4,4 7,7 9 5 13 7 SW 1020,7 4,5 0,0
06.12.2018 13:00:00 6,6 6,4 6,9 5,1 4,1 7,7 8 4 10 5 S 1020,7 3,7 0,2
06.12.2018 12:00:00 4,6 4,3 4,9 4,2 4,0 7,7 4 2 7 4 SSE 1021,9 0,9 0,3
06.12.2018 11:00:00 3,7 3,2 4,0 3,7 3,8 7,7 4 2 12 6 SE 1022,1 3,2 0,0
06.12.2018 10:00:00 3,1 2,7 3,1 3,3 3,8 7,7 8 4 14 8 SSE 1021,8 3,6 0,0
06.12.2018 09:00:00 2,5 2,0 2,4 2,9 3,7 7,7 5 3 17 9 ESE 1021,3 2,8 0,0
06.12.2018 08:00:00 2,4 2,0 2,3 2,9 3,7 7,7 11 6 16 9 SE 1020,7 3,8 0,0
06.12.2018 07:00:00 2,2 1,8 2,3 2,9 3,7 7,7 6 3 16 9 ENE 1020,8 3,4 0,0
06.12.2018 06:00:00 2,1 1,6 2,1 2,7 3,6 7,7 11 6 19 11 SSE 1020,3 3,5 0,5
06.12.2018 05:00:00 2,0 1,3 1,9 2,6 3,6 7,7 10 5 16 9 ESE 1020,2 4,3 0,2
06.12.2018 04:00:00 2,3 0,6 1,9 2,5 3,6 7,8 12 7 16 9 SSE 1020,8 9 0,0
06.12.2018 03:00:00 2,1 0,2 1,7 2,4 3,6 7,8 7 4 13 7 S 1021,7 18 0,0
06.12.2018 02:00:00 2,1 -0,1 1,6 2,3 3,6 7,8 7 4 14 8 SE 1021,8 21 0,0
06.12.2018 01:00:00 2,2 -0,2 1,6 2,2 3,6 7,8 8 5 17 9 S 1021,9 24 0,0
06.12.2018 00:00:00 2,0 -0,4 1,4 2,1 3,7 7,8 9 5 16 8 SE 1021,9 24 0,0
05.12.2018 23:00:00 2,0 -0,6 1,4 2,1 3,7 7,8 10 5 20 11 SSE 1022,8 25 0,0
05.12.2018 22:00:00 1,9 -0,6 1,0 2,0 3,8 7,8 10 5 19 11 SE 1023,4 23 0,0
05.12.2018 21:00:00 1,8 -0,6 1,0 2,0 4,0 7,8 9 5 18 10 SE 1023,8 23 0,0
05.12.2018 20:00:00 1,5 0,1 0,4 2,1 4,1 7,8 9 5 14 8 SE 1024,5 15 0,0
05.12.2018 19:00:00 1,9 0,5 0,8 2,6 4,2 7,8 9 5 21 12 SE 1025,3 11 0,0
05.12.2018 18:00:00 2,4 0,8 1,5 3,1 4,3 7,8 12 6 21 12 SE 1025,6 12 0,0
05.12.2018 17:00:00 2,5 1,4 1,9 3,4 4,3 7,8 7 4 16 8 SE 1026,3 12 0,0
05.12.2018 16:00:00 2,8 1,3 2,3 3,7 4,2 7,8 9 5 16 9 SE 1026,5 15 0,0
05.12.2018 15:00:00 3,0 1,3 2,7 3,9 4,1 7,8 8 4 14 7 ESE 1026,6 15 0,0
05.12.2018 14:00:00 3,1 1,6 2,9 4,0 3,9 7,8 9 5 18 10 ESE 1027,3 16 0,0
05.12.2018 13:00:00 3,0 1,7 3,0 3,6 3,6 7,8 7 4 13 7 SSE 1028,1 13 0,0
05.12.2018 12:00:00 2,3 1,6 2,7 2,9 3,4 7,8 6 3 11 6 ESE 1029,0 10 0,0
05.12.2018 11:00:00 1,0 0,5 0,4 1,7 3,4 7,8 7 4 14 8 ESE 1029,9 4,4 0,0
05.12.2018 10:00:00 0,0 -0,5 -0,2 1,1 3,5 7,8 5 3 9 5 E 1030,0 2,9 0,0
05.12.2018 09:00:00 -1,2 -1,7 -2,4 1,1 3,6 7,8 4 2 8 4 SSE 1030,0 8 0,0
05.12.2018 08:00:00 -1,5 -1,8 -2,6 1,2 3,7 7,8 3 2 5 3 SSE 1030,0 8 0,0
05.12.2018 07:00:00 -1,4 -1,6 -2,5 1,2 3,8 7,8 1 1 6 4 SSE 1030,0 6 0,0
05.12.2018 06:00:00 -1,5 -1,7 -2,6 1,3 4,0 7,8 4 2 5 3 E 1029,9 5 0,0
05.12.2018 05:00:00 -0,9 -1,1 -1,3 1,5 4,1 7,7 4 2 6 4 SSE 1029,3 8 0,0
05.12.2018 04:00:00 -1,1 -1,5 -1,6 1,4 4,3 7,7 1 1 5 3 SE 1029,9 6 0,0
05.12.2018 03:00:00 -1,8 -1,8 -2,0 1,5 4,5 7,7 2 1 4 2 E 1030,0 3,1 0,0
05.12.2018 02:00:00 -1,8 -1,9 -2,6 1,6 4,8 7,7 3 2 4 2 WSW 1030,0 0,1 0,0
05.12.2018 01:00:00 -1,0 -1,0 -2,2 1,8 5,1 7,7 4 2 6 3 SSW 1029,6 0,9 0,0
05.12.2018 00:00:00 -1,7 -1,9 -2,7 2,1 5,4 7,7 0 0 0 0 N 1030,1 0,1 0,0
04.12.2018 23:00:00 -0,9 -1,0 -2,0 2,4 5,7 7,6 0 0 7 4 N 1029,4 0,1 0,0

tt = Température de l'air
td = dewpoint
tt 5cm = Température de l'air 5cm
tt -5cm = Température de l'air -5cm
tt -20cm = Température de l'air -20cm
tt -100cm = Température de l'air -100cm
ff = Vitesse du vent
fx = gusts
dd = Direction du vent
ppp = reduced air pressure
vv = visibility
rr = Quantités de précipitations

stations d'obs. à proximité